Starlink 30308

operational
NORAD ID: 57742 Int'l Des: 2023-131 Owner: SPXS Country: US Constellation: starlink
LEOCIRCULAR

About Starlink 30308

Description loading...

Live Position

Loading 3D Globe...

Upcoming Passes

Altitude History

Altitude vs Time

uPlot chart will show altitude changes over time

Two-Line Element Set

1 57742U 23131L 25258.13075050 .00000204 00000-0 30190-4 0 9991
2 57742 43.0058 45.8925 0001367 267.9237 92.1449 15.02538369113526
Epoch: Sep 15, 2025 • Age: 13 hours

Current Status

Altitude 567.3 km
Velocity 7.58 km/s
Sub-Earth Point -32.56°S, 130.21°E
Launch Date Sep 1, 2023
Age 2 years
Type internet

Technical Details

Classification Payload
Mass 730.00 kg
Dry Mass 700.00 kg
Total Mass 730.00 kg
Length 0.30 m
Diameter 4.10 m
Span 29.00 m
Shape Box + pan
Manufacturer SPXS
Bus Type Starlink V2M
Phase Status In Orbit
Owner/State SPXS/US

Large Constellations

Loading constellations...